Simultaneous Nadir Overpasses (SNOs) Predictions

Prediction of SNOs between METOP-B and NOAA-19 Satellite Orbit:

Table of predicted SNOs for the next 14.0 days since TLE Epoch: 4/9/2022
Index Date (METOP-B) Time (METOP-B) Lat,Lon (METOP-B) SZA (METOP-B ) Date (NOAA-19) Time (NOAA-19) Lat,Lon (NOAA-19) SZA (NOAA-19 ) Distance(km) Time Diff (sec)
1 04/19/2022 15:32:15 80.81, -20.37 70.98 04/19/2022 15:31:00 80.81, -20.47 70.95 2.05 75
2 04/19/2022 16:22:56 -80.80, 146.94 109.04 04/19/2022 16:22:05 -80.81, 146.93 109.06 0.80 51
3 04/19/2022 17:13:36 80.82, -45.50 70.98 04/19/2022 17:12:59 80.81, -45.59 70.95 1.93 37
4 04/19/2022 18:04:17 -80.82, 121.81 109.04 04/19/2022 18:04:04 -80.80, 121.80 109.06 1.38 13
5 04/19/2022 18:54:58 80.81, -70.99 70.94 04/19/2022 18:54:59 80.81, -71.09 70.93 1.71 1
6 04/19/2022 19:45:39 -80.81, 96.32 109.08 04/19/2022 19:46:04 -80.80, 96.31 109.08 0.50 25
7 04/19/2022 20:36:20 80.80, -96.48 70.89 04/19/2022 20:36:59 80.81, -96.58 70.90 1.95 39
8 04/19/2022 21:27:01 -80.80, 70.83 109.13 04/19/2022 21:28:04 -80.80, 70.81 109.10 0.57 63



Historial Predications of SNOs between METOP-B and NOAA-19
